Вернуться в каталог

STARLINK-37576

АктивенСвязьSSO
NORAD 69047·PAYLOAD·🇺🇸 United States

Запущен May 6, 2026 с Vandenberg Space Force Base

Loading…

Ближайшие Пролёты (ближайшие 24 часа)

TLE

СвежийSource: CelesTrak SupGP

Эпоха: Sep 15, 2026, 03:32 UTC

1 69047C 26101Y   26258.14770833 -.00020513  00000+0 -63688-3 0  2586
2 69047  97.2852 111.7925 0001618  93.0687 279.7211 15.33444504    19

Отслеживайте STARLINK-37576 в реальном времени с AllMySat

Download on the App Store